Portada
METAR-TAF:

METAR-TAF

Aeroports :

Schoolcraft County Airport

Manistique, Michigan, Estats Units d'Amèrica

latitud: 45-58-29N, longitud: 086-10-19W, altitud: 209 m

Observació

L'informe es va fer fa 11 minuts, a les 00:15 UTC
Vent calma
Temperatura -20°C
Humitat 64%
Pressió 1023 hPa
Visibilitat: 16.1 km
Cel clar

METAR: KISQ 200015Z AUTO 00000KT 10SM CLR M20/M25 A3021 RMK AO2 T12041247

Hora: 19:26 (00:26 UTC)


TAF: manca

Observacions i pronòstics meteorològics de més de 4000 aeroports (METAR i TAF).

Les estacions disponibles són els punts grocs i vermells al mapa.

Posi el ratolí al punt desitjat per veure el nom de l'estació.

Feu clic per veure les observacions i els pronòstics meteorològics.

Per canviar el mapa: feu clic els botons verds amb una creu de color negre per apropar; al botó verd amb un guió per allunyar la imatge; o en les fletxes verdes per a mapes adjacents.


METAR-TAF: